Погода в Насве

Россия / Псковская область     56°34′36″N   30°09′36″E
темп.,
°C
ветер,
м/с
пор.,
м/с
влажн.,
%
обл.,
%
осадки,
мм/ч
давл.,
гПа
погр.,
м
11 апреля, вс
вс1100:00+4зюз2292100 0.1 102124
03:00+4с1191100 0.1 102212
06:00+3юв229393 0.0 102322
09:00+5юв239294 0.1 1025186
12:00+7вюв248799 0.0 1026373
15:00+7вюв2391100 0.0 1027183
18:00+8вюв2487100 0.0 1027187
21:00+7юв249172 0.0 102767
12 апреля, пн
пн1200:00+6ююв368934 0.0 102896
03:00+5ю358810 0.0 102875
06:00+4ююв3108867 0.0 1028181
09:00+9ююв4107138 0.0 1028345
12:00+13ююв58515 0.0 10271015
15:00+15ююв58410 0.0 10251505
18:00+15ююв47460 0.0 1023610
21:00+9ююв376625 0.0 1022100
13 апреля, вт
вт1300:00+7ююв3108137 0.0 1022207
03:00+6ююв3892100 0.0 1022174
06:00+5ю249558 0.0 102164
09:00+9ю35775 0.0 1021275
12:00+15ю455088 0.0 10201024
15:00+17ююз35394 0.0 10191626
18:00+16ююз23447 0.0 1018297
21:00+10ссз24756 0.0 1020110
14 апреля, ср
ср1400:00+7ссз489378 0.0 1020292
03:00+6ссз5987100 0.0 1020357
06:00+5с51089100 0.0 1020443
09:00+5с51191100 0.8 1021486
12:00+5ссв51188100 2.8 1021562
15:00+4ссв61291100 5.1 1022609
18:00+3ссв61389100 1.4 1022552
21:00+3ссв61387100 1.6 1022570
15 апреля, чт
чт1500:00+4ссв61288100 0.3 1022521
03:00+3ссв6118999 0.3 1022515
06:00+2ссв61288100 0.5 1022492
09:00+2ссв61390100 2.3 1022481
12:00+2ссв61488100 1.0 1023530
15:00+4ссв61382100 1.3 1024708
18:00+5св41282100 0.0 1023592
21:00+4ссв51470100 0.0 1025480